Regional Weather Roundup
Issued by NWS

Home | Current Version | Previous Version | Text Only | Print | Product List | Glossary Off
Versions: 1 2 3 4 5 6 7 8 9 10 11 12 13 14 15 16 17 18 19 20 21 22 23 24 25 26 27 28 29 30 31 32 33 34 35 36 37 38 39 40 41 42 43 44 45 46 47 48 49 50

658
ASUS44 KJAN 250303
RWRMS

MISSISSIPPI HOURLY WEATHER ROUNDUP
NATIONAL WEATHER SERVICE JACKSON MS
900 PM CST SAT JAN 24 2015

NOTE: "FAIR: INDICATES FEW OR NO CLOUDS BELOW 12,000 FEET WITH NO
SIGNIFICANT WEATHER AND/OR OBSTRUCTIONS TO VISIBILITY.

MSZ001>002-007>008-010>013-018>021-025>028-034>036-250400-
NORTHWEST MISSISSIPPI

CITY           SKY/WX    TMP DP  RH WIND       PRES   REMARKS
CLARKSDALE     FAIR      43  37  81 S6        29.96F
CLEVELAND      FAIR      43  39  87 S6        29.97S
GREENWOOD      CLEAR     41  34  76 S7        29.98F
GREENVILLE     CLEAR     45  35  68 SW12      29.97F
GRENADA        FAIR      41  34  75 CALM      29.98S
OLIVE BRANCH   CLEAR     37  36  93 S8        29.94S WCI  31
OXFORD         FAIR      41  32  70 SW7       29.97F
TUNICA         CLEAR     41  36  81 S8        29.95S
$$

MSZ003>006-009-014>017-022>024-029>033-037>039-250400-
NORTHEAST MISSISSIPPI

CITY           SKY/WX    TMP DP  RH WIND       PRES   REMARKS
COLUMBUS AFB   CLEAR     35  30  82 S5        30.00S WCI  31
CORINTH        FAIR      41  30  65 S5        29.95R
GOLDN TRIANGLE CLEAR     41  30  65 SW6       29.99S
STARKVILLE     FAIR      34  32  93 CALM      30.00S
TUPELO         CLEAR     39  30  70 S8        29.98R WCI  33
$$

MSZ040-058-250400-
CENTRAL MISSISSIPPI

CITY           SKY/WX    TMP DP  RH WIND       PRES   REMARKS
JACKSON INTL   CLEAR     39  32  76 S8        30.02F WCI  33
JACKSON HAWKNS CLEAR     41  33  73 CALM      30.02F
MERIDIAN KEY   CLEAR     36  34  92 S5        30.03S WCI  32
MERIDIAN NAS   CLEAR     38  31  76 CALM      30.03R
RAYMOND        FAIR      36  32  87 MISG      30.02F
VICKSBURG      CLEAR     45  36  70 CALM      30.03F
$$

MSZ059>079-250400-
SOUTH MISSISSIPPI

CITY           SKY/WX    TMP DP  RH WIND       PRES   REMARKS
BROOKHAVEN     FAIR      43  36  75 CALM      30.05F
HATTIESBURG    CLEAR     38  35  89 CALM      30.06F
MCCOMB         CLEAR     37  33  85 CALM      30.05F
NATCHEZ        CLEAR     43  34  70 S3        30.04F
PINE BELT      CLEAR     34  30  86 CALM      30.05F
$$

MSZ080>082-250400-
COASTAL MISSISSIPPI

CITY           SKY/WX    TMP DP  RH WIND       PRES   REMARKS
BAY ST LOUIS   CLEAR     37  36  93 CALM      30.07
BILOXI         CLEAR     45  37  73 W5        30.06F
PASCAGOULA     CLEAR     39  38  96 CALM      30.07F
GULFPORT       CLEAR     41  36  82 CALM      30.06F
$$



USA.gov is the U.S. government's official web portal to all federal, state and local government web resources and services.